• In Belarus
  • List of Countries
  • For 7 days
  • Water Temperature
  • Satellite Maps
  • Weather Map
  • Weather Widgets
  • user-avatar
    Login

    Hourly Weather Vyazkovskiy

    Today, 15 November, Thursday

    Time Temperature Precipitation Wind Pressure Humidity
    00:00 -3°C° 0 mm 4 mps 757 mmHg 60%
    01:00 -3°C° 0 mm 4 mps 757 mmHg 63%
    02:00 -4°C° 0 mm 3 mps 757 mmHg 61%
    03:00 -4°C° 0 mm 3 mps 757 mmHg 62%
    04:00 -4°C° 0 mm 3 mps 758 mmHg 63%
    05:00 -4°C° 0 mm 4 mps 758 mmHg 64%
    06:00 -4°C° 0 mm 4 mps 758 mmHg 64%
    07:00 -4°C° 0 mm 4 mps 759 mmHg 64%
    08:00 -4°C° 0 mm 4 mps 759 mmHg 63%
    09:00 -3°C° 0 mm 4 mps 759 mmHg 60%
    10:00 -2°C° 0 mm 3 mps 760 mmHg 57%
    11:00 -1°C° 0 mm 3 mps 760 mmHg 54%
    12:00 -1°C° 0 mm 3 mps 761 mmHg 53%
    13:00 0°C° 0 mm 3 mps 761 mmHg 52%
    14:00 0°C° 0 mm 3 mps 761 mmHg 51%
    15:00 -1°C° 0 mm 3 mps 761 mmHg 53%
    16:00 -2°C° 0 mm 3 mps 762 mmHg 55%
    17:00 -2°C° 0 mm 2 mps 762 mmHg 56%
    18:00 -3°C° 0 mm 2 mps 763 mmHg 55%
    19:00 -3°C° 0 mm 2 mps 763 mmHg 53%
    20:00 -3°C° 0 mm 2 mps 763 mmHg 51%
    21:00 -3°C° 0 mm 2 mps 764 mmHg 50%
    22:00 -3°C° 0 mm 2 mps 764 mmHg 48%
    23:00 -3°C° 0 mm 2 mps 764 mmHg 47%

    Tomorrow, 16 November, Friday

    Time Temperature Precipitation Wind Pressure Humidity
    00:00 -3°C° 0 mm 2 mps 765 mmHg 45%
    01:00 -3°C° 0 mm 2 mps 765 mmHg 43%
    02:00 -4°C° 0 mm 2 mps 765 mmHg 42%
    03:00 -4°C° 0 mm 2 mps 765 mmHg 40%
    04:00 -4°C° 0 mm 2 mps 765 mmHg 38%
    05:00 -4°C° 0 mm 2 mps 766 mmHg 36%
    06:00 -5°C° 0 mm 3 mps 766 mmHg 34%
    07:00 -5°C° 0 mm 3 mps 766 mmHg 33%
    08:00 -5°C° 0 mm 3 mps 767 mmHg 31%
    09:00 -4°C° 0 mm 3 mps 767 mmHg 29%
    10:00 -2°C° 0 mm 3 mps 767 mmHg 28%
    11:00 -1°C° 0 mm 3 mps 767 mmHg 26%
    12:00 -1°C° 0 mm 3 mps 767 mmHg 26%
    13:00 -1°C° 0 mm 3 mps 767 mmHg 27%
    14:00 0°C° 0 mm 3 mps 767 mmHg 27%
    15:00 -1°C° 0 mm 3 mps 767 mmHg 29%
    16:00 -2°C° 0 mm 3 mps 767 mmHg 30%
    17:00 -4°C° 0 mm 3 mps 767 mmHg 32%
    18:00 -4°C° 0 mm 3 mps 767 mmHg 31%
    19:00 -3°C° 0 mm 2 mps 767 mmHg 30%
    20:00 -3°C° 0 mm 2 mps 767 mmHg 29%
    21:00 -3°C° 0 mm 2 mps 767 mmHg 28%
    22:00 -3°C° 0 mm 2 mps 767 mmHg 27%
    23:00 -3°C° 0 mm 2 mps 767 mmHg 26%

    Day after tomorrow, 17 November, Saturday

    Time Temperature Precipitation Wind Pressure Humidity
    00:00 -4°C° 0 mm 2 mps 767 mmHg 25%
    01:00 -4°C° 0 mm 2 mps 767 mmHg 24%
    02:00 -2°C° 0 mm 1 mps 767 mmHg 23%
    03:00 -2°C° 0 mm 1 mps 766 mmHg 23%
    04:00 -2°C° 0 mm 1 mps 766 mmHg 22%
    05:00 -2°C° 0 mm 1 mps 766 mmHg 22%
    06:00 -2°C° 0 mm 1 mps 766 mmHg 21%
    07:00 -2°C° 0 mm 1 mps 766 mmHg 21%
    08:00 -2°C° 0 mm 1 mps 766 mmHg 20%
    09:00 -1°C° 0 mm 1 mps 765 mmHg 18%
    10:00 +1°C° 0 mm 1 mps 765 mmHg 17%
    11:00 +1°C° 0 mm 0 mps 764 mmHg 15%
    12:00 +2°C° 0 mm 1 mps 764 mmHg 17%
    13:00 +2°C° 0 mm 1 mps 763 mmHg 18%
    14:00 +2°C° 0 mm 1 mps 763 mmHg 19%
    15:00 +1°C° 0 mm 1 mps 762 mmHg 20%
    16:00 0°C° 0 mm 1 mps 762 mmHg 20%
    17:00 0°C° 0 mm 1 mps 761 mmHg 21%
    18:00 -3°C° 0 mm 2 mps 760 mmHg 21%
    19:00 -3°C° 0 mm 2 mps 760 mmHg 22%
    20:00 -3°C° 0 mm 2 mps 759 mmHg 23%
    21:00 -3°C° 0 mm 2 mps 758 mmHg 24%
    22:00 -4°C° 0 mm 3 mps 758 mmHg 25%
    23:00 -4°C° 0 mm 3 mps 757 mmHg 26%

    18 November, Sunday

    Time Temperature Precipitation Wind Pressure Humidity
    00:00 -4°C° 0 mm 3 mps 756 mmHg 30%
    01:00 -4°C° 0 mm 3 mps 756 mmHg 35%
    02:00 -4°C° 0 mm 3 mps 755 mmHg 39%
    03:00 -4°C° 0.2 mm 3 mps 754 mmHg 48%
    04:00 -4°C° 0.2 mm 3 mps 753 mmHg 57%
    05:00 -4°C° 0.2 mm 4 mps 753 mmHg 67%
    06:00 -4°C° 0.2 mm 3 mps 752 mmHg 71%
    07:00 -4°C° 0.2 mm 3 mps 752 mmHg 76%
    08:00 -4°C° 0.2 mm 3 mps 751 mmHg 81%
    09:00 -4°C° 0.2 mm 3 mps 751 mmHg 81%
    10:00 -2°C° 0.2 mm 3 mps 751 mmHg 82%
    11:00 -2°C° 0.2 mm 3 mps 751 mmHg 83%
    12:00 -2°C° 0.1 mm 2 mps 751 mmHg 83%
    13:00 -2°C° 0.1 mm 2 mps 751 mmHg 83%
    14:00 -2°C° 0.1 mm 2 mps 751 mmHg 83%
    15:00 -2°C° 0.1 mm 2 mps 751 mmHg 84%
    16:00 -2°C° 0.1 mm 2 mps 751 mmHg 85%
    17:00 0°C° 0.1 mm 1 mps 751 mmHg 85%
    18:00 0°C° 0.1 mm 1 mps 751 mmHg 85%
    19:00 -2°C° 0.1 mm 2 mps 751 mmHg 84%
    20:00 -2°C° 0.1 mm 2 mps 751 mmHg 84%
    21:00 -2°C° 0.1 mm 2 mps 751 mmHg 81%
    22:00 -3°C° 0.1 mm 2 mps 752 mmHg 79%
    23:00 -3°C° 0.1 mm 2 mps 752 mmHg 76%

    19 November, Monday

    Time Temperature Precipitation Wind Pressure Humidity
    00:00 -3°C° 0 mm 2 mps 752 mmHg 72%
    01:00 -3°C° 0 mm 2 mps 753 mmHg 69%
    02:00 -3°C° 0 mm 2 mps 753 mmHg 65%
    03:00 -3°C° 0 mm 2 mps 753 mmHg 61%
    04:00 -4°C° 0 mm 2 mps 753 mmHg 58%
    05:00 -4°C° 0 mm 2 mps 754 mmHg 55%
    06:00 -4°C° 0 mm 2 mps 754 mmHg 54%
    07:00 -4°C° 0 mm 2 mps 755 mmHg 53%
    08:00 -4°C° 0 mm 2 mps 755 mmHg 53%
    09:00 -5°C° 0 mm 3 mps 756 mmHg 51%
    10:00 -4°C° 0 mm 3 mps 756 mmHg 50%
    11:00 -2°C° 0 mm 3 mps 757 mmHg 48%
    12:00 -2°C° 0 mm 3 mps 757 mmHg 51%
    13:00 -2°C° 0 mm 2 mps 757 mmHg 54%
    14:00 -2°C° 0 mm 2 mps 758 mmHg 56%
    15:00 -2°C° 0 mm 2 mps 758 mmHg 59%
    16:00 -4°C° 0 mm 3 mps 758 mmHg 61%
    17:00 -5°C° 0 mm 3 mps 758 mmHg 63%
    18:00 -5°C° 0 mm 3 mps 759 mmHg 64%
    19:00 -5°C° 0 mm 3 mps 759 mmHg 64%
    20:00 -5°C° 0 mm 3 mps 759 mmHg 65%
    21:00 -6°C° 0 mm 3 mps 759 mmHg 65%
    22:00 -6°C° 0 mm 3 mps 759 mmHg 66%
    23:00 -6°C° 0 mm 3 mps 760 mmHg 66%

    20 November, Tuesday

    Time Temperature Precipitation Wind Pressure Humidity
    00:00 -5°C° 0 mm 2 mps 760 mmHg 66%
    01:00 -5°C° 0 mm 2 mps 760 mmHg 66%
    02:00 -5°C° 0 mm 2 mps 760 mmHg 67%
    03:00 -5°C° 0 mm 2 mps 760 mmHg 66%
    04:00 -5°C° 0 mm 2 mps 760 mmHg 66%
    05:00 -6°C° 0 mm 2 mps 760 mmHg 66%
    06:00 -6°C° 0 mm 2 mps 760 mmHg 66%
    07:00 -5°C° 0 mm 2 mps 760 mmHg 65%
    08:00 -5°C° 0 mm 2 mps 760 mmHg 64%
    09:00 -5°C° 0 mm 3 mps 760 mmHg 60%
    10:00 -4°C° 0 mm 3 mps 760 mmHg 56%
    11:00 -2°C° 0 mm 3 mps 760 mmHg 52%
    12:00 -2°C° 0 mm 3 mps 759 mmHg 53%
    13:00 -2°C° 0 mm 2 mps 759 mmHg 54%
    14:00 -2°C° 0 mm 2 mps 759 mmHg 56%
    15:00 -3°C° 0 mm 2 mps 759 mmHg 57%
    16:00 -3°C° 0 mm 2 mps 759 mmHg 59%
    17:00 -4°C° 0 mm 2 mps 759 mmHg 60%
    18:00 -4°C° 0 mm 2 mps 759 mmHg 60%
    19:00 -4°C° 0 mm 2 mps 759 mmHg 60%
    20:00 -4°C° 0 mm 2 mps 759 mmHg 60%
    21:00 -4°C° 0 mm 2 mps 759 mmHg 60%
    22:00 -5°C° 0 mm 2 mps 759 mmHg 59%
    23:00 -5°C° 0 mm 2 mps 759 mmHg 59%
    Show more